Location: Gad�tanya
(48.0500°N, 20.8500°E)
Time: 21:39:45
(UTC+00:00)

Cosmos 2112 Rocket - Pass Details

Date: 05 July 2020
Orbit: 756 x 787 km, 74.0° (Epoch: 05 August)

Event Time Altitude Azimuth Distance (km) Brightness Sun altitude
Exits shadow 21:08:06 26° 168° (SSE) 1,499 4.9 -16.2°
Maximum altitude 21:10:49 51° 106° (ESE) 989 4.3 -16.4°
Drops below altitude 10° 21:15:59 10° 32° (NNE) 2,359 7.0 -16.7°
Sets 21:18:27 0° 27° (NNE) 3,291 7.9 -16.9°
